Overview Statistics Trail Chart Weather Telemetry Raw packets
 

This is the latest recevied weather packets stored in our database for station/object KQ4WWD. If no packets are shown the sender has not sent any weather packets the latest 10 day(s).

<< 68 69 70 71 72 73 74 >>
Time Temp. Humidity Pressure Rain* Wind** Luminosity Snow
1788125746 25° C 96% 1016.1 hPa 0 mm - 55 W/m² -
1788125441 25° C 96% 1016.1 hPa 0 mm - 49 W/m² -
1788125137 25° C 96% 1016.2 hPa 4.83 mm - 50 W/m² -
1788124848 25° C 96% 1016.3 hPa 11.94 mm - 58 W/m² -
1788124527 24.44° C 96% 1016.2 hPa 19.81 mm - 63 W/m² -
1788124226 24.44° C 96% 1016 hPa 40.89 mm - 62 W/m² -
1788123921 24.44° C 95% 1015.9 hPa 79.25 mm - 49 W/m² -
1788123621 24.44° C 95% 1016.4 hPa 105.66 mm - 39 W/m² -
1788123318 25° C 94% 1016.5 hPa 71.88 mm - 63 W/m² -
1788123014 26.11° C 93% 1016.3 hPa 26.92 mm - 56 W/m² -
1788122713 27.22° C 90% 1015.8 hPa 8.89 mm - 111 W/m² -
1788122407 27.78° C 88% 1015.3 hPa 9.65 mm - 328 W/m² -
1788122103 28.33° C 87% 1015.3 hPa 7.87 mm - 501 W/m² -
1788121804 30° C 79% 1015.4 hPa 0 mm - 113 W/m² -
1788121498 30.56° C 78% 1015.3 hPa 0 mm - 101 W/m² -
1788121194 30.56° C 77% 1015.4 hPa 0 mm - 119 W/m² -
1788120893 30° C 76% 1015.1 hPa 0 mm - 129 W/m² -
1788120589 30° C 75% 1015.3 hPa 0 mm - 160 W/m² -
1788120289 30.56° C 74% 1015.3 hPa 0 mm - 141 W/m² -
1788119988 30.56° C 74% 1015.4 hPa 0 mm - 132 W/m² -
1788119684 31.11° C 73% 1015.4 hPa 0 mm - 139 W/m² -
1788119382 32.22° C 71% 1015.5 hPa 0 mm - 135 W/m² -
1788119081 33.89° C 66% 1015.5 hPa 0 mm - 759 W/m² -
1788118782 34.44° C 63% 1015.8 hPa 0 mm - 754 W/m² -
1788118481 34.44° C 62% 1015.6 hPa 0 mm - 212 W/m² -

* Rain latest hour (hover to see other rain measurements)
** Current wind speed in m/s (hover to see current wind gust speed)